Time,TemperatureF,DewpointF,PressureIn,WindDirection,WindDirectionDegrees,WindSpeedMPH,WindSpeedGustMPH,Humidity,HourlyPrecipIn,Conditions,Clouds,dailyrainin,SolarRadiationWatts/m^2,SoftwareType,DateUTC
2013-09-17 00:23:00,61.0,40.0,-100.00,East,95,0.0,5.0,45,0.00,,,0.00,0.000000,,2013-09-17 07:23:00,
2013-09-17 00:32:00,61.0,40.0,-100.00,East,95,0.0,5.0,45,0.00,,,0.00,0.000000,,2013-09-17 07:32:00,
2013-09-17 00:42:00,61.0,40.0,-100.00,East,95,0.0,5.0,45,0.00,,,0.00,0.000000,,2013-09-17 07:42:00,
2013-09-17 00:52:00,61.0,40.0,-100.00,East,95,0.0,5.0,45,0.00,,,0.00,0.000000,,2013-09-17 07:52:00,
2013-09-17 01:22:00,60.0,41.0,-100.00,ESE,103,0.0,4.0,49,0.00,,,0.00,0.000000,,2013-09-17 08:22:00,
2013-09-17 01:31:00,60.0,41.0,-100.00,ESE,103,0.0,4.0,49,0.00,,,0.00,0.000000,,2013-09-17 08:31:00,
2013-09-17 01:42:00,60.0,41.0,-100.00,ESE,103,0.0,4.0,49,0.00,,,0.00,0.000000,,2013-09-17 08:42:00,
2013-09-17 01:52:00,60.0,41.0,-100.00,ESE,103,0.0,4.0,49,0.00,,,0.00,0.000000,,2013-09-17 08:52:00,
2013-09-17 02:22:00,59.0,40.0,-100.00,East,92,0.0,5.0,50,0.00,,,0.00,0.000000,,2013-09-17 09:22:00,
2013-09-17 02:33:00,59.0,40.0,-100.00,East,92,0.0,5.0,50,0.00,,,0.00,0.000000,,2013-09-17 09:33:00,
2013-09-17 02:42:00,59.0,40.0,-100.00,East,92,0.0,5.0,50,0.00,,,0.00,0.000000,,2013-09-17 09:42:00,
2013-09-17 02:53:00,59.0,40.0,-100.00,East,92,0.0,5.0,50,0.00,,,0.00,0.000000,,2013-09-17 09:53:00,
2013-09-17 03:23:00,59.0,40.0,-100.00,East,86,0.0,6.0,49,0.00,,,0.00,0.000000,,2013-09-17 10:23:00,
2013-09-17 03:32:00,59.0,40.0,-100.00,East,86,0.0,6.0,49,0.00,,,0.00,0.000000,,2013-09-17 10:32:00,
2013-09-17 03:42:00,59.0,40.0,-100.00,East,86,0.0,6.0,49,0.00,,,0.00,0.000000,,2013-09-17 10:42:00,
2013-09-17 03:53:00,59.0,40.0,-100.00,East,86,0.0,6.0,49,0.00,,,0.00,0.000000,,2013-09-17 10:53:00,
2013-09-17 04:22:00,59.0,40.0,-100.00,ESE,106,3.0,5.0,49,0.00,,,0.00,0.000000,,2013-09-17 11:22:00,
2013-09-17 04:33:00,59.0,40.0,-100.00,ESE,106,3.0,5.0,49,0.00,,,0.00,0.000000,,2013-09-17 11:33:00,
2013-09-17 04:42:00,59.0,40.0,-100.00,ESE,106,3.0,5.0,49,0.00,,,0.00,0.000000,,2013-09-17 11:42:00,
2013-09-17 04:52:00,59.0,40.0,-100.00,ESE,106,3.0,5.0,49,0.00,,,0.00,0.000000,,2013-09-17 11:52:00,
2013-09-17 05:22:00,55.0,39.0,-100.00,East,84,0.0,7.0,55,0.00,,,0.00,0.000000,,2013-09-17 12:22:00,
2013-09-17 05:32:00,55.0,39.0,-100.00,East,84,0.0,7.0,55,0.00,,,0.00,0.000000,,2013-09-17 12:32:00,
2013-09-17 05:42:00,55.0,39.0,-100.00,East,84,0.0,7.0,55,0.00,,,0.00,0.000000,,2013-09-17 12:42:00,
2013-09-17 05:52:00,55.0,39.0,-100.00,East,84,0.0,7.0,55,0.00,,,0.00,0.000000,,2013-09-17 12:52:00,
2013-09-17 06:22:00,54.0,40.0,-100.00,ESE,104,0.0,5.0,60,0.00,,,0.00,0.000000,,2013-09-17 13:22:00,
2013-09-17 06:32:00,54.0,40.0,-100.00,ESE,104,0.0,5.0,60,0.00,,,0.00,0.000000,,2013-09-17 13:32:00,
2013-09-17 06:42:00,54.0,40.0,-100.00,ESE,104,0.0,5.0,60,0.00,,,0.00,0.000000,,2013-09-17 13:42:00,
2013-09-17 06:52:00,54.0,40.0,-100.00,ESE,104,0.0,5.0,60,0.00,,,0.00,0.000000,,2013-09-17 13:52:00,
2013-09-17 07:22:00,55.0,41.0,-100.00,East,94,0.0,4.0,59,0.00,,,0.00,2.000000,,2013-09-17 14:22:00,
2013-09-17 07:32:00,55.0,41.0,-100.00,East,94,0.0,4.0,59,0.00,,,0.00,2.000000,,2013-09-17 14:32:00,
2013-09-17 07:42:00,55.0,41.0,-100.00,East,94,0.0,4.0,59,0.00,,,0.00,2.000000,,2013-09-17 14:42:00,
2013-09-17 07:52:00,55.0,41.0,-100.00,East,94,0.0,4.0,59,0.00,,,0.00,2.000000,,2013-09-17 14:52:00,
2013-09-17 08:22:00,60.0,45.0,-100.00,ESE,105,0.0,5.0,57,0.00,,,0.00,24.000000,,2013-09-17 15:22:00,
2013-09-17 08:34:00,60.0,45.0,-100.00,ESE,105,0.0,5.0,57,0.00,,,0.00,24.000000,,2013-09-17 15:34:00,
2013-09-17 08:44:00,60.0,45.0,-100.00,ESE,105,0.0,5.0,57,0.00,,,0.00,24.000000,,2013-09-17 15:44:00,
2013-09-17 08:53:00,60.0,45.0,-100.00,ESE,105,0.0,5.0,57,0.00,,,0.00,24.000000,,2013-09-17 15:53:00,
2013-09-17 09:42:00,73.0,49.0,-100.00,WSW,247,0.0,5.0,42,0.00,,,0.00,163.000000,,2013-09-17 16:42:00,
2013-09-17 09:53:00,73.0,49.0,-100.00,WSW,247,0.0,5.0,42,0.00,,,0.00,163.000000,,2013-09-17 16:53:00,
2013-09-17 10:23:00,77.0,49.0,-100.00,WSW,247,2.0,4.0,37,0.00,,,0.00,595.000000,,2013-09-17 17:23:00,
2013-09-17 10:34:00,77.0,49.0,-100.00,WSW,247,2.0,4.0,37,0.00,,,0.00,595.000000,,2013-09-17 17:34:00,
2013-09-17 10:43:00,77.0,49.0,-100.00,WSW,247,2.0,4.0,37,0.00,,,0.00,595.000000,,2013-09-17 17:43:00,
2013-09-17 10:53:00,77.0,49.0,-100.00,WSW,247,2.0,4.0,37,0.00,,,0.00,595.000000,,2013-09-17 17:53:00,
2013-09-17 11:22:00,77.0,51.0,-100.00,WSW,251,4.0,8.0,40,0.00,,,0.00,769.000000,,2013-09-17 18:22:00,
2013-09-17 11:32:00,77.0,51.0,-100.00,WSW,251,4.0,8.0,40,0.00,,,0.00,769.000000,,2013-09-17 18:32:00,
2013-09-17 11:42:00,77.0,51.0,-100.00,WSW,251,4.0,8.0,40,0.00,,,0.00,769.000000,,2013-09-17 18:42:00,
2013-09-17 11:52:00,77.0,51.0,-100.00,WSW,251,4.0,8.0,40,0.00,,,0.00,769.000000,,2013-09-17 18:52:00,
2013-09-17 12:22:00,78.0,51.0,-100.00,West,266,4.0,11.0,39,0.00,,,0.00,945.000000,,2013-09-17 19:22:00,
2013-09-17 12:32:00,78.0,51.0,-100.00,West,266,4.0,11.0,39,0.00,,,0.00,945.000000,,2013-09-17 19:32:00,
2013-09-17 12:42:00,78.0,51.0,-100.00,West,266,4.0,11.0,39,0.00,,,0.00,945.000000,,2013-09-17 19:42:00,
2013-09-17 12:52:00,78.0,51.0,-100.00,West,266,4.0,11.0,39,0.00,,,0.00,945.000000,,2013-09-17 19:52:00,
2013-09-17 13:22:00,80.0,51.0,-100.00,SW,232,4.0,13.0,36,0.00,,,0.00,1035.000000,,2013-09-17 20:22:00,
2013-09-17 13:32:00,80.0,51.0,-100.00,SW,232,4.0,13.0,36,0.00,,,0.00,1035.000000,,2013-09-17 20:32:00,
2013-09-17 13:42:00,80.0,51.0,-100.00,SW,232,4.0,13.0,36,0.00,,,0.00,1035.000000,,2013-09-17 20:42:00,
2013-09-17 13:52:00,80.0,51.0,-100.00,SW,232,4.0,13.0,36,0.00,,,0.00,1035.000000,,2013-09-17 20:52:00,
2013-09-17 14:22:00,81.0,49.0,-100.00,ESE,121,4.0,12.0,33,0.00,,,0.00,1030.000000,,2013-09-17 21:22:00,
2013-09-17 14:34:00,81.0,49.0,-100.00,ESE,121,4.0,12.0,33,0.00,,,0.00,1030.000000,,2013-09-17 21:34:00,
2013-09-17 14:44:00,81.0,49.0,-100.00,ESE,121,4.0,12.0,33,0.00,,,0.00,1030.000000,,2013-09-17 21:44:00,
2013-09-17 14:54:00,81.0,49.0,-100.00,ESE,121,4.0,12.0,33,0.00,,,0.00,1030.000000,,2013-09-17 21:54:00,
2013-09-17 15:24:00,81.0,49.0,-100.00,West,281,5.0,11.0,33,0.00,,,0.00,951.000000,,2013-09-17 22:24:00,
2013-09-17 15:33:00,81.0,49.0,-100.00,West,281,5.0,11.0,33,0.00,,,0.00,951.000000,,2013-09-17 22:33:00,
2013-09-17 15:43:00,81.0,49.0,-100.00,West,281,5.0,11.0,33,0.00,,,0.00,951.000000,,2013-09-17 22:43:00,
2013-09-17 15:53:00,81.0,49.0,-100.00,West,281,5.0,11.0,33,0.00,,,0.00,951.000000,,2013-09-17 22:53:00,
2013-09-17 16:21:00,79.0,48.0,-100.00,WSW,247,6.0,12.0,34,0.00,,,0.00,793.000000,,2013-09-17 23:21:00,
2013-09-17 16:34:00,79.0,48.0,-100.00,WSW,247,6.0,12.0,34,0.00,,,0.00,793.000000,,2013-09-17 23:34:00,
2013-09-17 16:42:00,79.0,48.0,-100.00,WSW,247,6.0,12.0,34,0.00,,,0.00,793.000000,,2013-09-17 23:42:00,
2013-09-17 16:52:00,79.0,48.0,-100.00,WSW,247,6.0,12.0,34,0.00,,,0.00,793.000000,,2013-09-17 23:52:00,
2013-09-17 17:22:00,77.0,47.0,-100.00,WSW,247,5.0,13.0,35,0.00,,,0.00,584.000000,,2013-09-18 00:22:00,
2013-09-17 17:32:00,77.0,47.0,-100.00,WSW,247,5.0,13.0,35,0.00,,,0.00,584.000000,,2013-09-18 00:32:00,
2013-09-17 17:42:00,77.0,47.0,-100.00,WSW,247,5.0,13.0,35,0.00,,,0.00,584.000000,,2013-09-18 00:42:00,
2013-09-17 17:52:00,77.0,47.0,-100.00,WSW,247,5.0,13.0,35,0.00,,,0.00,584.000000,,2013-09-18 00:52:00,
2013-09-17 18:21:00,74.0,47.0,-100.00,West,259,4.0,13.0,38,0.00,,,0.00,352.000000,,2013-09-18 01:21:00,
2013-09-17 18:32:00,74.0,47.0,-100.00,West,259,4.0,13.0,38,0.00,,,0.00,352.000000,,2013-09-18 01:32:00,
2013-09-17 18:42:00,74.0,47.0,-100.00,West,259,4.0,13.0,38,0.00,,,0.00,352.000000,,2013-09-18 01:42:00,
2013-09-17 18:52:00,74.0,47.0,-100.00,West,259,4.0,13.0,38,0.00,,,0.00,352.000000,,2013-09-18 01:52:00,
2013-09-17 19:22:00,68.0,46.0,-100.00,West,263,2.0,13.0,45,0.00,,,0.00,90.000000,,2013-09-18 02:22:00,
2013-09-17 19:32:00,68.0,46.0,-100.00,West,263,2.0,13.0,45,0.00,,,0.00,90.000000,,2013-09-18 02:32:00,
2013-09-17 19:43:00,68.0,46.0,-100.00,West,263,2.0,13.0,45,0.00,,,0.00,90.000000,,2013-09-18 02:43:00,
2013-09-17 19:52:00,68.0,46.0,-100.00,West,263,2.0,13.0,45,0.00,,,0.00,90.000000,,2013-09-18 02:52:00,
2013-09-17 20:23:00,61.0,44.0,-100.00,East,80,0.0,9.0,53,0.00,,,0.00,0.000000,,2013-09-18 03:23:00,
2013-09-17 20:35:00,61.0,44.0,-100.00,East,80,0.0,9.0,53,0.00,,,0.00,0.000000,,2013-09-18 03:35:00,
2013-09-17 20:44:00,61.0,44.0,-100.00,East,80,0.0,9.0,53,0.00,,,0.00,0.000000,,2013-09-18 03:44:00,
2013-09-17 20:54:00,61.0,44.0,-100.00,East,80,0.0,9.0,53,0.00,,,0.00,0.000000,,2013-09-18 03:54:00,
2013-09-17 21:24:00,57.0,43.0,-100.00,ESE,103,0.0,4.0,59,0.00,,,0.00,0.000000,,2013-09-18 04:24:00,
2013-09-17 21:34:00,57.0,43.0,-100.00,ESE,103,0.0,4.0,59,0.00,,,0.00,0.000000,,2013-09-18 04:34:00,
2013-09-17 21:44:00,57.0,43.0,-100.00,ESE,103,0.0,4.0,59,0.00,,,0.00,0.000000,,2013-09-18 04:44:00,
2013-09-17 21:54:00,57.0,43.0,-100.00,ESE,103,0.0,4.0,59,0.00,,,0.00,0.000000,,2013-09-18 04:54:00,
2013-09-17 22:23:00,58.0,44.0,-100.00,ESE,113,0.0,4.0,60,0.00,,,0.00,0.000000,,2013-09-18 05:23:00,
2013-09-17 22:33:00,58.0,44.0,-100.00,ESE,113,0.0,4.0,60,0.00,,,0.00,0.000000,,2013-09-18 05:33:00,
2013-09-17 22:42:00,58.0,44.0,-100.00,ESE,113,0.0,4.0,60,0.00,,,0.00,0.000000,,2013-09-18 05:42:00,
2013-09-17 22:52:00,58.0,44.0,-100.00,ESE,113,0.0,4.0,60,0.00,,,0.00,0.000000,,2013-09-18 05:52:00,
2013-09-17 23:22:00,56.0,44.0,-100.00,ENE,70,0.0,7.0,63,0.00,,,0.00,0.000000,,2013-09-18 06:22:00,
2013-09-17 23:33:00,56.0,44.0,-100.00,ENE,70,0.0,7.0,63,0.00,,,0.00,0.000000,,2013-09-18 06:33:00,
2013-09-17 23:42:00,56.0,44.0,-100.00,ENE,70,0.0,7.0,63,0.00,,,0.00,0.000000,,2013-09-18 06:42:00,
2013-09-17 23:52:00,56.0,44.0,-100.00,ENE,70,0.0,7.0,63,0.00,,,0.00,0.000000,,2013-09-18 06:52:00,